This demonstration page uses our WeatherBlox Daily Observations layout. Learn more.

Left ArrowRight Arrow

Hourly Observations for January 13, 2016

Temp ( °F °C ) Dew Point ( °F °C ) Humidity (%) Winds ( mph kmh ) Pressure ( in mb ) Visibility ( mi km ) Precip ( " mm )
12:53 am 00:53 Clear 38 3.3 27 -2.8 65 65 NNW 6 9 30.18 1022 10 16 0.00 0.00
1:53 am 01:53 Clear 37 2.8 24 -4.4 59 59 NNW 7 11 30.18 1022 10 16 0.00 0.00
2:53 am 02:53 Clear 35 1.7 22 -5.6 59 59 N 5 7 30.19 1022 10 16 0.00 0.00
3:53 am 03:53 Clear 34 1.1 20 -6.7 56 56 Calm 30.20 1023 10 16 0.00 0.00
4:53 am 04:53 Clear 31 -0.6 21 -6.1 67 67 Calm 30.21 1023 10 16 0.00 0.00
5:53 am 05:53 Clear 31 -0.6 21 -6.1 67 67 Calm 30.21 1023 10 16 0.00 0.00
6:53 am 06:53 Clear 31 -0.6 17 -8.3 56 56 Calm 30.22 1023 10 16 0.00 0.00
7:53 am 07:53 Sunny 30 -1.1 15 -9.4 54 54 Calm 30.24 1024 10 16 0.00 0.00
8:53 am 08:53 Sunny 33 0.6 15 -9.4 47 47 NW 6 9 30.25 1025 10 16 0.00 0.00
9:53 am 09:53 Sunny 37 2.8 12 -11.1 36 36 WNW 6 9 30.28 1026 10 16 0.00 0.00
10:53 am 10:53 Sunny 40 4.4 11 -11.7 30 30 NW 8 13 30.28 1025 10 16 0.00 0.00
11:53 am 11:53 Sunny 43 6.1 14 -10 31 31 NNW 10 17 30.25 1024 10 16 0.00 0.00
12:53 pm 12:53 Sunny 45 7.2 13 -10.6 27 27 WNW 12 19 30.22 1023 10 16 0.00 0.00
1:53 pm 13:53 Sunny 48 8.9 17 -8.3 29 29 WNW 9 15 30.21 1023 10 16 0.00 0.00
2:53 pm 14:53 Sunny 48 8.9 16 -8.9 28 28 W 8 13 30.19 1022 10 16 0.00 0.00
3:53 pm 15:53 Sunny 50 10 19 -7.2 29 29 WNW 8 13 30.19 1022 10 16 0.00 0.00
4:53 pm 16:53 Sunny 49 9.4 19 -7.2 31 31 WNW 8 13 30.18 1022 10 16 0.00 0.00
5:53 pm 17:53 Clear 45 7.2 18 -7.8 34 34 NW 7 11 30.17 1022 10 16 0.00 0.00
6:53 pm 18:53 Clear 43 6.1 19 -7.2 38 38 WSW 3 6 30.20 1023 10 16 0.00 0.00
7:53 pm 19:53 Clear 37 2.8 23 -5 57 57 Calm 30.21 1023 10 16 0.00 0.00
8:53 pm 20:53 Clear 35 1.7 25 -3.9 67 67 Calm 30.20 1023 10 16 0.00 0.00
9:53 pm 21:53 Clear 34 1.1 24 -4.4 67 67 Calm 30.21 1023 10 16 0.00 0.00
10:53 pm 22:53 Clear 31 -0.6 25 -3.9 79 79 Calm 30.19 1022 10 16 0.00 0.00
11:53 pm 23:53 Clear 31 -0.6 23 -5 72 72 Calm 30.17 1022 10 16 0.00 0.00

Powered by AerisWeather